Regional Weather Roundup
Issued by NWS

Home | Current Version | Previous Version | Graphics & Text | Print | Product List | Glossary On
Versions: 1 2 3 4 5 6 7 8 9 10 11 12 13 14 15 16 17 18 19 20 21 22 23 24 25 26 27 28 29 30 31 32 33 34 35 36 37 38 39 40 41 42 43 44 45 46 47 48 49 50
000
ASUS45 KBOI 261310
RWRID
WEATHER ROUNDUP FOR IDAHO
NATIONAL WEATHER SERVICE BOISE ID
600 AM MST MON JAN 26 2015

NOTE: "FAIR" INDICATES FEW OR NO CLOUDS BELOW 12000 FEET
WITH NO SIGNIFICANT WEATHER AND/OR OBSTRUCTIONS TO VISIBILITY

IDZ012-014-261400-
SOUTHWEST IDAHO


CITY           SKY/WX    TMP DP  RH WIND       PRES   REMARKS
BOISE          CLEAR     29  28  96 SE5       30.34F FOG     WCI  24
CALDWELL       CLOUDY    27  21  80 CALM      30.38F VSB 1/4
MOUNTAIN HOME  CLEAR     31  30  94 SE8       30.34F WCI  24
$$

IDZ016-017-261400-
SOUTHCENTRAL IDAHO


CITY           SKY/WX    TMP DP  RH WIND       PRES   REMARKS
BURLEY         FOG       30  28  92 NE15      30.37S VSB 3/4 WCI  19
JEROME         PTCLDY    28  26  92 NE17      30.35F WCI  16
TWIN FALLS     FOG       31  28  89 E13       30.35F VSB 1/4 WCI  21
$$

IDZ019>023-261400-
SOUTHEAST IDAHO


CITY           SKY/WX    TMP DP  RH WIND       PRES   REMARKS
IDAHO FALLS    PTCLDY    21  18  88 NE3       30.42F
POCATELLO      FOG       27  27 100 N5        30.42F VSB 1/4 WCI  22
REXBURG        PTCLDY    17  15  92 E3        30.42F
$$

IDZ006-010-011-018-031-032-261400-
CENTRAL IDAHO MOUNTAINS


CITY           SKY/WX    TMP DP  RH WIND       PRES   REMARKS
MCCALL         FOG       25  21  85 N3        30.31F VSB 3/4
HAILEY         CLEAR     27  23  86 NW7       30.42R WCI  19
STANLEY          N/A     14  11  87 SE3       30.42F
SALMON         CLOUDY    25  23  93 CALM      30.41S VSB<1/4
CHALLIS        CLEAR     26  23  88 CALM      30.39R
$$

IDZ002-004-006-007-026-261400-
NORTHERN IDAHO


CITY           SKY/WX    TMP DP  RH WIND       PRES   REMARKS
LEWISTON       PTCLDY    48  37  65 E17G26    30.10F
LOWELL           N/A     36  34  92 N6        30.27F WCI  31
COEUR D`ALENE  CLOUDY    37  36  93 NE12      30.11F VSB 1/2 WCI  30
MULLAN PASS    MOCLDY    42  27  55 VRB7      30.17R
$$


USA.gov is the U.S. government's official web portal to all federal, state and local government web resources and services.